TimeEDT,TemperatureF,Dew PointF,Humidity,Sea Level PressureIn,VisibilityMPH,Wind Direction,Wind SpeedMPH,Gust SpeedMPH,PrecipitationIn,Events,Conditions,WindDirDegrees,DateUTC
12:51 AM,64.9,63.0,93,29.89,10.0,East,4.6,-,N/A,,Overcast,90,2012-10-03 04:51:00
1:51 AM,64.9,62.1,90,29.90,10.0,Calm,Calm,-,N/A,,Overcast,0,2012-10-03 05:51:00
2:22 AM,64.4,62.6,94,29.92,9.0,WNW,3.5,-,N/A,,Overcast,290,2012-10-03 06:22:00
2:51 AM,64.9,63.0,93,29.93,10.0,Calm,Calm,-,N/A,,Overcast,0,2012-10-03 06:51:00
3:51 AM,64.0,63.0,96,29.95,8.0,Calm,Calm,-,N/A,,Overcast,0,2012-10-03 07:51:00
4:51 AM,66.0,64.0,93,29.96,10.0,WSW,5.8,-,N/A,,Overcast,250,2012-10-03 08:51:00
5:51 AM,66.9,64.0,90,29.99,10.0,SW,8.1,-,N/A,,Overcast,230,2012-10-03 09:51:00
6:51 AM,66.9,64.0,90,30.01,10.0,SW,6.9,-,N/A,,Mostly Cloudy,220,2012-10-03 10:51:00
7:51 AM,66.9,63.0,87,30.04,10.0,SW,5.8,-,N/A,,Overcast,230,2012-10-03 11:51:00
8:37 AM,66.2,62.6,88,30.05,10.0,SW,5.8,-,N/A,,Mostly Cloudy,230,2012-10-03 12:37:00
8:51 AM,66.0,62.1,87,30.06,10.0,WSW,6.9,-,N/A,,Mostly Cloudy,240,2012-10-03 12:51:00
9:02 AM,66.2,62.6,88,30.06,10.0,WSW,6.9,-,N/A,,Overcast,250,2012-10-03 13:02:00
9:41 AM,66.2,62.6,88,30.08,10.0,WSW,6.9,-,N/A,,Mostly Cloudy,240,2012-10-03 13:41:00
9:51 AM,66.9,62.1,84,30.09,10.0,WSW,6.9,-,N/A,,Mostly Cloudy,250,2012-10-03 13:51:00
10:51 AM,69.1,60.1,73,30.10,10.0,WSW,9.2,-,N/A,,Mostly Cloudy,250,2012-10-03 14:51:00
11:51 AM,69.1,59.0,70,30.10,10.0,West,4.6,-,N/A,,Overcast,260,2012-10-03 15:51:00
12:51 PM,70.0,59.0,68,30.11,10.0,SW,5.8,-,N/A,,Overcast,220,2012-10-03 16:51:00
1:51 PM,71.1,57.9,63,30.09,10.0,SSW,9.2,-,N/A,,Mostly Cloudy,210,2012-10-03 17:51:00
2:51 PM,73.0,57.0,57,30.09,10.0,South,10.4,-,N/A,,Mostly Cloudy,190,2012-10-03 18:51:00
3:51 PM,73.9,55.9,53,30.08,10.0,SSW,10.4,-,N/A,,Mostly Cloudy,210,2012-10-03 19:51:00
4:51 PM,73.9,57.0,55,30.09,10.0,WSW,8.1,-,N/A,,Mostly Cloudy,240,2012-10-03 20:51:00
5:51 PM,73.0,57.0,57,30.09,10.0,SSW,5.8,-,N/A,,Mostly Cloudy,210,2012-10-03 21:51:00
6:51 PM,71.1,55.9,59,30.10,10.0,SW,4.6,-,N/A,,Mostly Cloudy,220,2012-10-03 22:51:00
7:51 PM,66.9,57.9,73,30.12,10.0,Calm,Calm,-,N/A,,Mostly Cloudy,0,2012-10-03 23:51:00
8:51 PM,66.0,57.9,75,30.14,10.0,SW,3.5,-,N/A,,Overcast,220,2012-10-04 00:51:00
9:51 PM,64.9,57.0,75,30.15,10.0,Calm,Calm,-,N/A,,Overcast,0,2012-10-04 01:51:00
10:51 PM,62.6,55.4,77,30.15,10.0,WNW,5.8,-,N/A,,Overcast,290,2012-10-04 02:51:00
11:51 PM,62.1,55.0,78,30.18,10.0,Calm,Calm,-,N/A,,Mostly Cloudy,0,2012-10-04 03:51:00